AVA191 KFLL-SKRG

Flight info

Callsign AVA191
Flight time N/A
Altitude 35000
Route REGAE2 URSUS UP406 AKPEK AKPEK4C
Aircraft A320/M-SDE3FGHIRWY/LB1

Departure

Time 2026-05-04 00:13
Airport Fort Lauderdale Hollywood International Airport (KFLL)

Arrival

Time N/A
Airport Jose Maria Córdova International Airport (SKRG)
Time Latitude Longitude Altitude Speed Heading
2026-05-03 23:06 26.07344 -80.13641 7 ft 0 kts 104°
2026-05-03 23:07 26.07343 -80.13638 18 ft 0 kts 104°
2026-05-03 23:07 26.07343 -80.13639 18 ft 0 kts 104°
2026-05-03 23:12 26.07344 -80.13642 17 ft 3 kts 104°
2026-05-03 23:13 26.07351 -80.13671 17 ft 3 kts 104°
2026-05-03 23:13 26.07358 -80.13694 18 ft 4 kts 134°
2026-05-03 23:13 26.07380 -80.13707 18 ft 4 kts 174°
2026-05-03 23:13 26.07406 -80.13708 18 ft 4 kts 182°
2026-05-03 23:14 26.07431 -80.13709 17 ft 4 kts 141°
2026-05-03 23:14 26.07437 -80.13728 16 ft 4 kts 47°
2026-05-03 23:14 26.07416 -80.13735 19 ft 4 kts 360°
2026-05-03 23:14 26.07409 -80.13735 18 ft 0 kts 360°
2026-05-03 23:21 26.07417 -80.13735 19 ft 5 kts 360°
2026-05-03 23:22 26.07465 -80.13752 16 ft 2 kts 308°
2026-05-03 23:22 26.07468 -80.13760 16 ft 0 kts 288°
2026-05-03 23:22 26.07470 -80.13771 16 ft 3 kts 281°
2026-05-03 23:23 26.07470 -80.13794 16 ft 2 kts 269°
2026-05-03 23:23 26.07470 -80.13797 16 ft 0 kts 269°
2026-05-03 23:26 26.07470 -80.13798 16 ft 2 kts 269°
2026-05-03 23:26 26.07471 -80.13851 16 ft 10 kts 276°
2026-05-03 23:26 26.07482 -80.13915 16 ft 7 kts 281°
2026-05-03 23:26 26.07486 -80.13962 16 ft 5 kts 270°
2026-05-03 23:27 26.07484 -80.14004 16 ft 8 kts 269°
2026-05-03 23:27 26.07485 -80.14093 16 ft 14 kts 271°
2026-05-03 23:27 26.07486 -80.14196 16 ft 12 kts 270°
2026-05-03 23:27 26.07486 -80.14265 16 ft 5 kts 270°
2026-05-03 23:28 26.07486 -80.14277 16 ft 1 kts 270°
2026-05-03 23:28 26.07486 -80.14278 16 ft 0 kts 270°
2026-05-03 23:32 26.07486 -80.14279 16 ft 1 kts 270°
2026-05-03 23:33 26.07487 -80.14325 16 ft 10 kts 270°
2026-05-03 23:33 26.07487 -80.14398 16 ft 9 kts 271°
2026-05-03 23:33 26.07488 -80.14463 16 ft 9 kts 271°
2026-05-03 23:33 26.07488 -80.14552 16 ft 14 kts 269°
2026-05-03 23:34 26.07488 -80.14666 16 ft 15 kts 271°
2026-05-03 23:34 26.07488 -80.14779 16 ft 14 kts 269°
2026-05-03 23:34 26.07488 -80.14879 16 ft 12 kts 270°
2026-05-03 23:34 26.07488 -80.14965 16 ft 12 kts 270°
2026-05-03 23:35 26.07488 -80.15062 16 ft 12 kts 270°
2026-05-03 23:35 26.07423 -80.15126 16 ft 15 kts 184°
2026-05-03 23:35 26.07326 -80.15126 16 ft 13 kts 181°
2026-05-03 23:35 26.07242 -80.15127 16 ft 11 kts 180°
2026-05-03 23:36 26.07214 -80.15127 16 ft 0 kts 180°
2026-05-03 23:37 26.07206 -80.15127 16 ft 3 kts 181°
2026-05-03 23:37 26.07155 -80.15128 16 ft 11 kts 181°
2026-05-03 23:37 26.07088 -80.15129 16 ft 9 kts 180°
2026-05-03 23:37 26.07031 -80.15129 16 ft 7 kts 180°
2026-05-03 23:38 26.06984 -80.15129 16 ft 6 kts 180°
2026-05-03 23:38 26.06929 -80.15130 16 ft 9 kts 181°
2026-05-03 23:38 26.06871 -80.15130 16 ft 8 kts 180°
2026-05-03 23:38 26.06818 -80.15131 16 ft 7 kts 180°
2026-05-03 23:39 26.06772 -80.15131 16 ft 6 kts 180°
2026-05-03 23:39 26.06748 -80.15132 17 ft 0 kts 180°
2026-05-03 23:40 26.06737 -80.15132 18 ft 1 kts 181°
2026-05-03 23:40 26.06736 -80.15132 18 ft 0 kts 181°
2026-05-03 23:42 26.06724 -80.15132 19 ft 7 kts 184°
2026-05-03 23:42 26.06696 -80.15163 21 ft 3 kts 257°
2026-05-03 23:42 26.06696 -80.15168 21 ft 0 kts 266°
2026-05-03 23:48 26.06696 -80.15169 21 ft 1 kts 266°
2026-05-03 23:49 26.06695 -80.15200 21 ft 4 kts 269°
2026-05-03 23:49 26.06695 -80.15250 19 ft 12 kts 269°
2026-05-03 23:49 26.06696 -80.15352 16 ft 13 kts 270°
2026-05-03 23:49 26.06696 -80.15391 16 ft 0 kts 270°
2026-05-03 23:53 26.06696 -80.15404 16 ft 4 kts 270°
2026-05-03 23:54 26.06696 -80.15446 16 ft 5 kts 270°
2026-05-03 23:54 26.06696 -80.15481 16 ft 4 kts 270°
2026-05-03 23:54 26.06696 -80.15498 16 ft 3 kts 270°
2026-05-03 23:54 26.06696 -80.15516 16 ft 2 kts 270°
2026-05-03 23:55 26.06696 -80.15524 16 ft 0 kts 270°
2026-05-03 23:55 26.06696 -80.15525 16 ft 0 kts 270°
2026-05-03 23:58 26.06696 -80.15538 16 ft 4 kts 270°
2026-05-03 23:58 26.06696 -80.15569 16 ft 3 kts 270°
2026-05-03 23:58 26.06697 -80.15582 16 ft 0 kts 270°
2026-05-04 00:01 26.06697 -80.15585 16 ft 2 kts 270°
2026-05-04 00:01 26.06697 -80.15620 25 ft 5 kts 270°
2026-05-04 00:01 26.06697 -80.15643 16 ft 0 kts 270°
2026-05-04 00:03 26.06697 -80.15657 16 ft 5 kts 270°
2026-05-04 00:04 26.06697 -80.15701 16 ft 5 kts 270°
2026-05-04 00:04 26.06697 -80.15714 16 ft 0 kts 270°
2026-05-04 00:06 26.06697 -80.15715 16 ft 1 kts 270°
2026-05-04 00:06 26.06697 -80.15735 16 ft 4 kts 270°
2026-05-04 00:06 26.06697 -80.15761 16 ft 2 kts 270°
2026-05-04 00:07 26.06697 -80.15762 16 ft 0 kts 270°
2026-05-04 00:07 26.06697 -80.15765 16 ft 2 kts 270°
2026-05-04 00:08 26.06697 -80.15774 16 ft 0 kts 267°
2026-05-04 00:08 26.06697 -80.15777 16 ft 1 kts 267°
2026-05-04 00:08 26.06685 -80.15812 17 ft 0 kts 226°
2026-05-04 00:08 26.06682 -80.15813 18 ft 2 kts 205°
2026-05-04 00:11 26.06680 -80.15813 18 ft 2 kts 204°
2026-05-04 00:11 26.06644 -80.15822 16 ft 9 kts 185°
2026-05-04 00:12 26.06595 -80.15817 20 ft 4 kts 145°
2026-05-04 00:12 26.06590 -80.15799 18 ft 1 kts 98°
2026-05-04 00:12 26.06589 -80.15791 20 ft 5 kts 94°
2026-05-04 00:12 26.06589 -80.15604 23 ft 55 kts 89°
2026-05-04 00:13 26.06586 -80.14899 19 ft 124 kts 90°
2026-05-04 00:13 26.06578 -80.13738 149 ft 166 kts 89°
2026-05-04 00:13 26.06567 -80.12382 741 ft 175 kts 88°
2026-05-04 00:13 26.06587 -80.11027 1500 ft 176 kts 88°
2026-05-04 00:14 26.06615 -80.09607 1844 ft 194 kts 88°
2026-05-04 00:14 26.06642 -80.08015 2062 ft 217 kts 88°
2026-05-04 00:14 26.06666 -80.06245 2333 ft 241 kts 89°
2026-05-04 00:14 26.06689 -80.04294 2733 ft 262 kts 89°
2026-05-04 00:15 26.06709 -80.02224 3404 ft 271 kts 89°
2026-05-04 00:15 26.06723 -80.00110 4153 ft 277 kts 90°
2026-05-04 00:15 26.06717 -79.97965 4880 ft 283 kts 91°
2026-05-04 00:15 26.06699 -79.95753 5593 ft 289 kts 91°
2026-05-04 00:16 26.06674 -79.93501 6326 ft 294 kts 91°
2026-05-04 00:16 26.06646 -79.91206 7019 ft 299 kts 91°
2026-05-04 00:16 26.06617 -79.88877 7748 ft 302 kts 91°
2026-05-04 00:16 26.06589 -79.86522 8465 ft 306 kts 91°
2026-05-04 00:17 26.06564 -79.84137 9184 ft 310 kts 91°
2026-05-04 00:17 26.06351 -79.81738 9889 ft 313 kts 101°
2026-05-04 00:17 26.05976 -79.79325 10380 ft 325 kts 101°
2026-05-04 00:17 26.05571 -79.76754 10549 ft 348 kts 101°
2026-05-04 00:18 26.05137 -79.74013 10677 ft 371 kts 101°
2026-05-04 00:18 26.04683 -79.71135 10978 ft 385 kts 101°
2026-05-04 00:18 26.04221 -79.68180 11535 ft 390 kts 101°
2026-05-04 00:18 26.03753 -79.65194 12135 ft 394 kts 103°
2026-05-04 00:19 26.03084 -79.62228 12722 ft 397 kts 107°
2026-05-04 00:19 26.02368 -79.59262 13323 ft 400 kts 107°
2026-05-04 00:19 26.01624 -79.56274 13886 ft 403 kts 111°
2026-05-04 00:19 26.00461 -79.53437 14370 ft 403 kts 124°
2026-05-04 00:20 25.98782 -79.50973 14863 ft 401 kts 138°
2026-05-04 00:20 25.96655 -79.48969 15358 ft 398 kts 150°
2026-05-04 00:20 25.94227 -79.47540 15854 ft 394 kts 163°
2026-05-04 00:20 25.91606 -79.46722 16343 ft 391 kts 174°
2026-05-04 00:21 25.88926 -79.46165 16837 ft 393 kts 175°
2026-05-04 00:21 25.86211 -79.45945 17329 ft 390 kts 186°
2026-05-04 00:21 25.83541 -79.46301 17805 ft 386 kts 197°
2026-05-04 00:21 25.80990 -79.47231 18287 ft 384 kts 208°
2026-05-04 00:22 25.78674 -79.48673 18698 ft 382 kts 217°
2026-05-04 00:22 25.76460 -79.50303 19124 ft 384 kts 216°
2026-05-04 00:22 25.74207 -79.51941 19562 ft 385 kts 216°
2026-05-04 00:22 25.71958 -79.53565 19979 ft 387 kts 216°
2026-05-04 00:23 25.69688 -79.55199 20399 ft 389 kts 216°
2026-05-04 00:23 25.67450 -79.56878 20814 ft 389 kts 221°
2026-05-04 00:23 25.65324 -79.58744 21222 ft 390 kts 221°
2026-05-04 00:23 25.63196 -79.60615 21616 ft 392 kts 221°
2026-05-04 00:24 25.61052 -79.62495 22019 ft 394 kts 221°
2026-05-04 00:24 25.58894 -79.64384 22423 ft 395 kts 221°
2026-05-04 00:24 25.56732 -79.66271 22808 ft 397 kts 221°
2026-05-04 00:24 25.54553 -79.68170 23180 ft 399 kts 221°
2026-05-04 00:25 25.52372 -79.70073 23547 ft 401 kts 222°
2026-05-04 00:25 25.50180 -79.71991 23854 ft 402 kts 222°
2026-05-04 00:25 25.47981 -79.73915 24152 ft 403 kts 222°
2026-05-04 00:25 25.45775 -79.75845 24458 ft 405 kts 222°
2026-05-04 00:26 25.43567 -79.77775 24750 ft 406 kts 222°
2026-05-04 00:26 25.41344 -79.79716 25048 ft 407 kts 222°
2026-05-04 00:26 25.38989 -79.81493 25342 ft 414 kts 213°
2026-05-04 00:26 25.36297 -79.82704 25624 ft 424 kts 201°
2026-05-04 00:27 25.33347 -79.83236 25898 ft 436 kts 189°
2026-05-04 00:27 25.30281 -79.83013 26151 ft 450 kts 176°
2026-05-04 00:27 25.27220 -79.82116 26390 ft 458 kts 171°
2026-05-04 00:27 25.24145 -79.81123 26635 ft 460 kts 171°
2026-05-04 00:28 25.21070 -79.80131 26857 ft 462 kts 171°
2026-05-04 00:28 25.19023 -79.79472 27009 ft 463 kts 171°
2026-05-04 00:28 25.15919 -79.78476 27245 ft 465 kts 171°
2026-05-04 00:28 25.12799 -79.77478 27471 ft 467 kts 171°
2026-05-04 00:29 25.09678 -79.76482 27704 ft 468 kts 171°
2026-05-04 00:29 25.06529 -79.75480 27921 ft 470 kts 171°
2026-05-04 00:29 25.03384 -79.74482 28144 ft 472 kts 171°
2026-05-04 00:29 25.00226 -79.73481 28362 ft 473 kts 171°
2026-05-04 00:30 24.97058 -79.72472 28655 ft 473 kts 171°
2026-05-04 00:30 24.93900 -79.71462 28996 ft 472 kts 171°
2026-05-04 00:30 24.90763 -79.70418 29329 ft 474 kts 167°
2026-05-04 00:30 24.87723 -79.68936 29645 ft 482 kts 158°
2026-05-04 00:31 24.84864 -79.66982 29971 ft 485 kts 153°
2026-05-04 00:31 24.82030 -79.64973 30274 ft 484 kts 154°
2026-05-04 00:31 24.79196 -79.62978 30564 ft 482 kts 154°
2026-05-04 00:31 24.76362 -79.60984 30847 ft 481 kts 154°
2026-05-04 00:32 24.73544 -79.59005 31121 ft 480 kts 154°
2026-05-04 00:32 24.70728 -79.57032 31405 ft 479 kts 154°
2026-05-04 00:32 24.67912 -79.55056 31687 ft 479 kts 154°
2026-05-04 00:32 24.65115 -79.53087 31975 ft 478 kts 154°
2026-05-04 00:33 24.62317 -79.51119 32249 ft 477 kts 154°
2026-05-04 00:33 24.56728 -79.47196 32788 ft 476 kts 154°
2026-05-04 00:33 24.53944 -79.45244 33053 ft 475 kts 154°
2026-05-04 00:34 24.51149 -79.43285 33325 ft 475 kts 154°
2026-05-04 00:34 24.48367 -79.41337 33593 ft 474 kts 154°
2026-05-04 00:34 24.45583 -79.39390 33866 ft 474 kts 154°
2026-05-04 00:34 24.42805 -79.37448 34120 ft 473 kts 154°
2026-05-04 00:35 24.40025 -79.35507 34359 ft 473 kts 154°
2026-05-04 00:35 24.37256 -79.33573 34594 ft 472 kts 154°
2026-05-04 00:35 24.34485 -79.31635 34824 ft 472 kts 154°
2026-05-04 00:35 24.31720 -79.29696 34981 ft 472 kts 154°
2026-05-04 00:36 24.28954 -79.27759 35027 ft 472 kts 154°
2026-05-04 00:36 24.23441 -79.23830 35028 ft 473 kts 153°
2026-05-04 00:37 24.17949 -79.19844 35026 ft 473 kts 153°
2026-05-04 00:37 24.12455 -79.15872 35025 ft 473 kts 153°
2026-05-04 00:38 24.06930 -79.11934 35027 ft 474 kts 153°
2026-05-04 00:38 24.01339 -79.08169 35023 ft 467 kts 161°
2026-05-04 00:39 23.95267 -79.06020 35018 ft 454 kts 176°
2026-05-04 00:39 23.89048 -79.04798 35015 ft 454 kts 176°
2026-05-04 00:40 23.82821 -79.03580 35011 ft 455 kts 175°
2026-05-04 00:40 23.76592 -79.02340 35010 ft 456 kts 175°
2026-05-04 00:41 23.70344 -79.01096 35012 ft 456 kts 175°
2026-05-04 00:41 23.64077 -78.99862 35011 ft 457 kts 175°
2026-05-04 00:42 23.57808 -78.98637 35009 ft 458 kts 175°
2026-05-04 00:42 23.51539 -78.97400 35014 ft 459 kts 175°
2026-05-04 00:43 23.45251 -78.96156 35015 ft 459 kts 176°
2026-05-04 00:43 23.38958 -78.94922 35016 ft 460 kts 176°
2026-05-04 00:44 23.32654 -78.93678 35020 ft 460 kts 176°
2026-05-04 00:44 23.26351 -78.92443 35019 ft 460 kts 176°
2026-05-04 00:45 23.20049 -78.91207 35022 ft 460 kts 176°
2026-05-04 00:45 23.13740 -78.89966 35022 ft 461 kts 176°
2026-05-04 00:46 23.07424 -78.88724 35025 ft 461 kts 176°
2026-05-04 00:46 23.01113 -78.87482 35024 ft 461 kts 176°
2026-05-04 00:47 22.94796 -78.86243 35026 ft 461 kts 176°
2026-05-04 00:47 22.88403 -78.84991 35027 ft 461 kts 176°
2026-05-04 00:48 22.82056 -78.83754 35027 ft 461 kts 176°
2026-05-04 00:48 22.75737 -78.82525 35030 ft 461 kts 176°
2026-05-04 00:49 22.69452 -78.81303 35032 ft 461 kts 176°
2026-05-04 00:49 22.63067 -78.80052 35038 ft 461 kts 176°
2026-05-04 00:50 22.56760 -78.78818 35044 ft 461 kts 176°
2026-05-04 00:50 22.50427 -78.77585 35044 ft 461 kts 176°
2026-05-04 00:51 22.44100 -78.76362 35035 ft 461 kts 176°
2026-05-04 00:51 22.37776 -78.75140 35037 ft 462 kts 176°
2026-05-04 00:52 22.31504 -78.73924 35033 ft 462 kts 176°
2026-05-04 00:52 22.25172 -78.72690 35027 ft 462 kts 176°
2026-05-04 00:53 22.18839 -78.71469 35037 ft 463 kts 176°
2026-05-04 00:53 22.12487 -78.70249 35034 ft 463 kts 176°
2026-05-04 00:54 22.06175 -78.69028 35032 ft 464 kts 176°
2026-05-04 00:54 21.99785 -78.67788 35028 ft 464 kts 176°
2026-05-04 00:55 21.93427 -78.66556 35034 ft 464 kts 176°
2026-05-04 00:55 21.87075 -78.65338 35034 ft 464 kts 176°
2026-05-04 00:56 21.80723 -78.64121 35027 ft 464 kts 175°
2026-05-04 00:56 21.74358 -78.62893 35031 ft 464 kts 175°
2026-05-04 00:57 21.68009 -78.61669 35033 ft 464 kts 175°
2026-05-04 00:57 21.61638 -78.60447 35032 ft 465 kts 175°
2026-05-04 00:58 21.55258 -78.59225 35037 ft 465 kts 175°
2026-05-04 00:58 21.49967 -78.58207 35034 ft 465 kts 175°
2026-05-04 00:59 21.43588 -78.56984 35031 ft 465 kts 175°
2026-05-04 00:59 21.37212 -78.55764 35028 ft 466 kts 175°
2026-05-04 01:00 21.30817 -78.54552 35023 ft 466 kts 175°
2026-05-04 01:00 21.24439 -78.53338 35025 ft 466 kts 175°
2026-05-04 01:01 21.18046 -78.52109 35015 ft 466 kts 175°
2026-05-04 01:01 21.11662 -78.50892 35013 ft 466 kts 175°
2026-05-04 01:02 21.05275 -78.49674 35028 ft 466 kts 175°
2026-05-04 01:02 20.98893 -78.48468 35022 ft 466 kts 175°
2026-05-04 01:03 20.92501 -78.47263 35029 ft 466 kts 175°
2026-05-04 01:03 20.86121 -78.46038 35033 ft 466 kts 174°
2026-05-04 01:04 20.79727 -78.44815 35032 ft 466 kts 174°
2026-05-04 01:04 20.73341 -78.43605 35033 ft 466 kts 174°
2026-05-04 01:05 20.66953 -78.42404 35035 ft 466 kts 174°
2026-05-04 01:05 20.60567 -78.41203 35036 ft 466 kts 174°
2026-05-04 01:06 20.54163 -78.39989 35038 ft 467 kts 174°
2026-05-04 01:06 20.47777 -78.38777 35038 ft 467 kts 174°
2026-05-04 01:07 20.41378 -78.37569 35042 ft 467 kts 174°
2026-05-04 01:07 20.34969 -78.36357 35045 ft 467 kts 174°
2026-05-04 01:08 20.28546 -78.35148 35048 ft 468 kts 174°
2026-05-04 01:08 20.22140 -78.33939 35050 ft 468 kts 174°
2026-05-04 01:09 20.15727 -78.32731 35049 ft 468 kts 174°
2026-05-04 01:09 20.09353 -78.31535 35047 ft 468 kts 174°
2026-05-04 01:10 20.02932 -78.30334 35047 ft 468 kts 174°
2026-05-04 01:10 19.96522 -78.29131 35046 ft 468 kts 173°
2026-05-04 01:11 19.90135 -78.27725 35047 ft 470 kts 171°
2026-05-04 01:11 19.83723 -78.26161 35047 ft 470 kts 171°
2026-05-04 01:12 19.77344 -78.24642 35047 ft 469 kts 171°
2026-05-04 01:12 19.70953 -78.23180 35043 ft 469 kts 171°
2026-05-04 01:13 19.64568 -78.21721 35045 ft 469 kts 171°
2026-05-04 01:13 19.58189 -78.20261 35044 ft 469 kts 171°
2026-05-04 01:14 19.51799 -78.18798 35044 ft 469 kts 171°
2026-05-04 01:14 19.45417 -78.17340 35042 ft 469 kts 171°
2026-05-04 01:15 19.39030 -78.15879 35044 ft 469 kts 171°
2026-05-04 01:15 19.32637 -78.14413 35041 ft 469 kts 171°
2026-05-04 01:16 19.26264 -78.12959 35037 ft 469 kts 171°
2026-05-04 01:16 19.19858 -78.11505 35038 ft 469 kts 171°
2026-05-04 01:17 19.13515 -78.10055 35038 ft 470 kts 171°
2026-05-04 01:17 19.07125 -78.08590 35039 ft 470 kts 171°
2026-05-04 01:18 19.00731 -78.07118 35036 ft 470 kts 171°
2026-05-04 01:18 18.94342 -78.05667 35033 ft 470 kts 171°
2026-05-04 01:19 18.87948 -78.04220 35030 ft 470 kts 171°
2026-05-04 01:19 18.81553 -78.02769 35023 ft 470 kts 171°
2026-05-04 01:20 18.75173 -78.01317 35015 ft 470 kts 171°
2026-05-04 01:20 18.68783 -77.99865 35008 ft 470 kts 171°
2026-05-04 01:21 18.62380 -77.98410 34997 ft 470 kts 171°
2026-05-04 01:21 18.55988 -77.96960 34994 ft 470 kts 171°
2026-05-04 01:22 18.49579 -77.95511 34993 ft 471 kts 171°
2026-05-04 01:22 18.43162 -77.94057 34990 ft 472 kts 171°
2026-05-04 01:23 18.36741 -77.92605 35003 ft 472 kts 171°
2026-05-04 01:23 18.30315 -77.91152 35013 ft 472 kts 171°
2026-05-04 01:24 18.23874 -77.89697 35026 ft 473 kts 171°
2026-05-04 01:24 18.17486 -77.88253 35032 ft 473 kts 171°